Location: Newark
(21.1200°N, 73.4000°E)
Time: 04:26:25
(UTC+00:00)

Explorer 11/Cluster Stage 4 - Pass Details

Date: 24 January 2020
Orbit: 467 x 1259 km, 28.8° (Epoch: 16 February)

Event Time Altitude Azimuth Distance (km) Brightness Sun altitude
Rises 10:23:56 0° 272° (W) 4,190 11.0 29.2°
Reaches altitude 10° 10:27:04 10° 277° (W) 3,192 10.5 28.7°
Maximum altitude 10:34:52 50° 351° (N) 1,411 8.0 27.2°
Drops below altitude 10° 10:41:37 10° 65° (ENE) 2,774 8.9 25.9°
Sets 10:44:10 0° 71° (ENE) 3,607 9.4 25.5°
